Cloud_Cover
100 100 24 0 0 0 0 0 0 0 0 0 0 0 0 0 0 0 0 0 0 9
75 64 3 0 0 0 0 0 0 0 0 0 0 0 0 0 0 0 0 0 0 0
100 86 5 5 2 0 0 0 0 0 0 0 0 0 0 0 0 0 0 0 0 0
100 69 32 5 5 4 4 0 0 0 0 0 0 0 0 0 4 4 0 0 0 0
100 97 79 6 5 5 0 0 0 0 0 0 0 5 5 5 5 5 0 79 62 0
100 100 81 53 5 2 0 0 0 5 5 5 5 5 12 7 7 28 31 8 4 0
86 85 9 26 40 5 2 0 3 5 4 5 5 24 56 17 76 94 79 46 16 1
97 94 94 41 7 13 5 5 9 17 11 5 5 8 87 100 100 100 98 65 52 21
5 48 100 100 88 6 5 5 5 5 49 6 9 57 40 67 98 97 100 52 97 100
86 38 84 82 57 26 33 55 42 63 47 45 46 6 93 100 89 66 97 96 94 100
84 61 63 79 95 100 96 98 82 39 100 12 5 4 25 95 100 87 100 100 100 100
7 25 7 20 76 61 32 50 20 64 19 5 5 4 9 52 80 91 82 94 100 100
91 100 100 100 100 89 100 100 98 67 5 5 20 6 12 82 100 100 100 100 100 100
100 61 99 100 100 100 100 60 70 43 5 70 64 99 92 90 100 100 100 100 100 100